Meteo Giornale » Osservazioni meteo Danimarca » Soenderborg Lufthavn
ore: 21:50 - Osservazioni Meteo Soenderborg Lufthavn
Lat. 54° 58' N Lon. 9° 47' E Alt. 7 metri s.l.m.
15 °C
Pioggia
Temp. 24 Ore
15 °C
20 °C
Ovest/Sud-Ovest
13 Km/h
Dew point 14 °C
Umidità 93 %
Visibilità 10 Km
Il sole sorge alle ore 06:27
Il sole tramonta alle ore 20:14
| Data e Ora | Cielo e Fenomeni | T °C | DP °C | Um. % | Pres. hPa | Vis. km | Vento km/h | |
|---|---|---|---|---|---|---|---|---|
| Oggi h: 21:50 | Pioggia | 15 | 14 | 93 | 1016 | 10 | O/SO 13 | |
| Oggi h: 21:20 | Nuvoloso | 15 | 13 | 87 | 1016 | 10 | O/SO 14.8 | |
| Oggi h: 20:50 | Poco Nuvoloso | 15 | 13 | 87 | 1016 | 10 | O/SO 9.3 | |
| Oggi h: 20:20 | Nuvoloso | 16 | 14 | 87 | 1016 | 10 | SO 7.4 | |
| Oggi h: 19:50 | Nuvoloso | 16 | 14 | 87 | 1015 | 10 | O 7.4 | |
| Oggi h: 19:21 | Nuvoloso | 17 | 15 | 88 | 1015 | 10 | O 11.1 | |
| Oggi h: 18:50 | Pioggia nelle vicinanze | 16 | 15 | 93 | 1015 | 10 | O/SO 9.3 | |
| Oggi h: 18:21 | Pioggia | 16 | 14 | 87 | 1015 | 9 | O/SO 16.7 | |
| Oggi h: 17:53 | Pioggia nelle vicinanze | 17 | 15 | 88 | 1015 | 10 | SO 14.8 | |
| Oggi h: 17:20 | Nuvoloso | 17 | 14 | 82 | 1015 | 10 | O 22.2 | |
| Oggi h: 16:50 | Molto Nuvoloso | 20 | 14 | 68 | 1014 | 10 | SO 14.8 | |
| Oggi h: 16:20 | Molto Nuvoloso | 19 | 13 | 68 | 1014 | 10 | O/SO 18.5 | |
| Oggi h: 15:50 | Molto Nuvoloso | 20 | 14 | 68 | 1014 | 10 | O/SO 20.3 | |
| Oggi h: 15:20 | Nuvoloso | 20 | 14 | 68 | 1014 | 10 | O/SO 18.5 | |
| Oggi h: 14:50 | Nuvoloso | 19 | 14 | 72 | 1014 | 10 | O/SO 18.5 | |
| Oggi h: 14:20 | Pioggia nelle vicinanze | 20 | 15 | 72 | 1014 | 10 | O/SO 16.7 | |
| Oggi h: 13:51 | Pioggia nelle vicinanze | 19 | 14 | 72 | 1014 | 10 | O/SO 20.3 | |
| Oggi h: 13:20 | Pioggia nelle vicinanze | 18 | 15 | 82 | 1014 | 10 | O 16.7 | |
| Oggi h: 12:50 | Pioggia | 17 | 15 | 88 | 1014 | 10 | O/SO 13 | |
| Oggi h: 12:20 | Pioggia nelle vicinanze | 19 | 14 | 72 | 1013 | 10 | O 18.5 | |
| Oggi h: 11:50 | Pioggia nelle vicinanze | 18 | 15 | 82 | 1013 | 10 | O 18.5 | |
| Oggi h: 11:20 | Pioggia nelle vicinanze | 18 | 15 | 82 | 1013 | 10 | O/SO 16.7 | |
| Oggi h: 10:50 | Pioggia | 17 | 15 | 88 | 1012 | 10 | O/SO 14.8 | |
| Oggi h: 10:20 | Pioggia | 16 | 15 | 93 | 1012 | 10 | O/SO 16.7 | |
| Oggi h: 09:50 | Pioggia | 17 | 15 | 88 | 1012 | 10 | SO 13 | |
| Oggi h: 09:20 | Pioggia nelle vicinanze | 17 | 15 | 88 | 1012 | 10 | SO 11.1 | |
| Oggi h: 08:50 | Pioggia | 16 | 15 | 93 | 1012 | 4 | O 9.3 | |
| Oggi h: 08:20 | Pioggia nelle vicinanze | 16 | 15 | 93 | 1012 | 10 | N 5.5 | |
| Oggi h: 07:50 | Pioggia | 15 | 14 | 93 | 1011 | 5 | SO 11.1 | |
| Oggi h: 07:20 | Pioggia nelle vicinanze | 15 | 14 | 93 | 1011 | 10 | SO 7.4 | |
| Oggi h: 06:50 | Nuvoloso | 15 | 14 | 93 | 1011 | 10 | SO 11.1 | |
| Oggi h: 06:20 | Nuvoloso | 15 | 14 | 93 | 1011 | 10 | SO 11.1 | |
| Oggi h: 05:50 | Poco Nuvoloso | 15 | 14 | 93 | 1011 | 10 | SO 9.3 | |
| Oggi h: 05:20 | Poco Nuvoloso | 15 | 14 | 93 | 1011 | 10 | SO 11.1 | |
| Oggi h: 04:50 | Nuvoloso | 15 | 15 | 100 | 1010 | 10 | SO 13 | |
| Oggi h: 04:20 | Nuvoloso | 15 | 14 | 93 | 1010 | 10 | O/SO 9.3 | |
| Oggi h: 03:50 | Poco Nuvoloso | 15 | 14 | 93 | 1010 | 10 | O/SO 9.3 | |
| Oggi h: 03:20 | Poco Nuvoloso | 16 | 15 | 93 | 1010 | 10 | SO 11.1 | |
| Oggi h: 02:50 | Poco Nuvoloso | 16 | 15 | 93 | 1010 | 10 | SO 11.1 | |
| Oggi h: 02:20 | Poco Nuvoloso | 15 | 14 | 93 | 1009 | 10 | SO 9.3 | |
| Oggi h: 01:50 | Molto Nuvoloso | 15 | 14 | 93 | 1009 | 10 | N 5.5 | |
| Oggi h: 01:20 | Pioggia | 15 | 14 | 93 | 1009 | 10 | S 7.4 | |
| Oggi h: 00:50 | Poco Nuvoloso | 15 | 14 | 93 | 1009 | 10 | S 7.4 | |
| Oggi h: 00:20 | Nuvoloso | 15 | 14 | 93 | 1009 | 10 | S 9.3 | |
| Ieri h: 23:50 | Poco Nuvoloso | 15 | 14 | 93 | 1009 | 10 | S 7.4 | |
| Ieri h: 23:20 | Molto Nuvoloso | 15 | 14 | 93 | 1009 | 10 | N 5.5 | |
| Ieri h: 22:50 | Poco Nuvoloso | 15 | 14 | 93 | 1008 | 10 | N 5.5 | |



